COSMOS 1749

Satellite information

Favourite Embed

Satellite Type and Status

PAYLOADIN ORBIT

Key statistics

Satellite COSMOS 1749 at a glance.

Uptime

14274

Days in orbit

Revolutions

≈ 12.6

Per day

Orbit

LEO

Low Earth Orbit

Inclination

74.0

Latest

Satellite identification and parameters

Extended collection of information and parameters for COSMOS 1749.

Object identification

Identified? True

Debris? False

Object name: COSMOS 1749

International designator: 1986-042B

Object number (NORAD): 16759

Object ID (CCSDS): 16759

Country: COMMONWEALTH OF INDEPENDENT STATES (CIS)

Current information (Y/N): Y

RCS size: MEDIUM

Orbital parameters

Period: 114.458 minutes

Inclination: 74.0175 deg

SMA: 7808.927 km

Apoapsis: 1468.939 km

Periapsis: 1392.645 km

RAAN: 136.0937 deg

Eccentricy: 0.004885

Argument of periapsis: 298.0585 deg

Mean anomaly: 231.437 deg

Mean motion: 12.581016 rev/day

Mean motion (dot): -0.00000006 rev/day2

B* drag term: 0.000063877 1/REarth

Two-line elements (TLE)

Creation date: July 4, 2025, 6:39 p.m.

Reference frame: TEME

Reference center: EARTH

Epoch: July 4, 2025, 8:25 a.m. UTC

TLE line 0: 0 COSMOS 1749

TLE line 1: 1 16759U 86042B 25185.35099270 -.00000006 00000-0 63877-4 0 9996

TLE line 2: 2 16759 74.0175 136.0937 0048850 298.0585 231.4370 12.58101600794694

Live tracking on map

Real-time ground track for satellite COSMOS 1749.

In-orbit conjunctions

There are no conjunctions computed for COSMOS 1749, at the moment. Check back to stay up to date, as we update our databases every day.

Go to all conjunctions

Associated space launch

Military communications satellites

COSMOS 1749 was lifted into orbit during the mission ‘Kosmos-3M | Strela-1M 305-312’, on board a Kosmos-3M space rocket.

The launch took place on June 6, 1986, 3:57 a.m. from 132/1 (132L).

For more information about the launch, click the button.

Launch to space Kosmos-3M | Strela-1M 305-312
Kosmos-3M | Strela-1M 305-312

Agency: N/A

Status: Launch Successful

Launch date: June 6, 1986, 3:57 a.m. UTC

Rocket: Kosmos-3M

Launch pad: 132/1 (132L)

Location: Plesetsk Cosmodrome, Russian Federation

...

Latest news about this satellite

There are no fresh news available about this satellite. Check back as we update our databases every day.


Newsletter sign-up

Weekly statistics, charts and insights to help you stay on top of the space industry.